Location: Bellflower
(33.8817°N, 118.1170°W)
Time: 13:24:43
(UTC+00:00)

NOSS 3-4 (A) - Pass Details

Date: 23 November 2020
Orbit: 879 x 1333 km, 63.4° (Epoch: 18 January)

Event Time Altitude Azimuth Distance (km) Brightness Sun altitude
Rises 13:35:35 0° 228° (SW) 3,464 6.1 -11.9°
Reaches altitude 10° 13:38:09 10° 235° (SW) 2,527 5.3 -11.4°
Maximum altitude 13:43:40 44° 307° (NW) 1,222 3.6 -10.3°
Drops below altitude 10° 13:49:28 10° 18° (NNE) 2,653 5.8 -9.2°
Sets 13:52:14 0° 25° (NNE) 3,656 6.6 -8.7°
